sat.trackr.live / text

‹ back to catalog

FLOCK 4Q-36

NORAD 58274 · 2023-174U

PAYLOAD ACTIVE UNKNOWN

§ Identity

Operator
Country
US
Launch date
2023-11-11
Launch site
AFWTR
Launch vehicle
Mass (kg)
RCS (m²)

Purposes: earth_obs

External: N2YO · Heavens-Above · Gunter

§ Orbital elements

Epoch: 2026-06-13T18:54:27.347328Z

Period
92.42 min
Inclination
97.3859°
Eccentricity
0.0007440
Mean motion
15.58090395 rev/d
Perigee alt
388.1 km
Apogee alt
398.2 km
Semi-major
6,771.3 km
B*
4.7446e-4
RAAN
257.0767°
Arg perigee
156.1933°
Mean anomaly
203.9668°
Rev number
14,530

§ Raw data

FLOCK 4Q-361 58274U 23174U   26164.78781652  .00035696  00000+0  47446-3 0  99922 58274  97.3859 257.0767 0007440 156.1933 203.9668 15.58090395145308

JSON: /api/v1/satellites/58274 · /tle

For live sub-satellite position, see the globe view (requires WebGL).

§ Visibility from observer

Set your observer location to see the next 7 days of passes ≥ 10°. The values pass through the URL so the page stays shareable.

No JS? Fill the form by hand. The geolocation button needs JavaScript.